Temp
8 8 8 8 7 7 7 6 6 6 6 6 5 5 4 3 3 2 2 1 2 2 1 -0 0 1 1 1 1 1 1 2 2 1 1 1 1 2 1 1 1 1 1
8 9 8 8 8 7 7 6 6 6 6 6 5 5 3 3 3 2 2 1 1 2 1 -0 0 1 1 -0 -0 0 0 1 1 2 1 1 1 1 1 1 1 0 0
8 9 9 8 8 7 7 6 6 6 6 6 5 4 4 3 3 3 2 1 1 1 1 1 1 -0 -0 -0 -1 -0 -1 0 0 2 1 1 1 1 1 -1 1 0 0
9 9 9 8 8 7 7 6 6 6 6 6 5 4 3 3 3 2 2 2 2 1 1 1 0 0 -1 -1 -1 -1 -0 0 1 1 1 1 0 0 1 1 1 -0 0
9 9 9 8 8 8 7 6 6 6 6 6 6 4 4 3 3 2 2 2 1 1 1 1 1 1 1 0 -1 -1 -1 -0 0 1 1 1 0 -0 -0 -1 -2 -0 0
9 9 9 8 8 8 7 6 6 6 6 6 6 5 4 4 4 3 2 1 1 1 1 1 1 1 1 0 -0 -1 -1 -3 -1 -1 -0 -0 0 0 -1 -1 -2 -2 -1
8 8 9 9 9 8 7 6 6 6 6 6 6 5 4 4 3 3 3 2 1 1 1 1 1 0 1 0 0 -0 -1 -1 -3 -2 -1 -1 -0 -2 -2 -3 -2 -2 -2
8 8 9 9 9 8 7 6 6 6 6 6 6 5 5 4 4 3 3 3 2 2 1 1 1 0 0 0 0 -0 -1 -1 -1 -2 -3 -2 -2 -3 -3 -2 -2 -2 -2
9 9 9 9 9 8 7 6 5 5 5 5 5 5 5 4 4 3 3 3 3 2 1 1 1 0 0 0 0 0 -1 -1 -1 -1 -1 -2 -2 -3 -3 -2 -3 -3 -2
9 9 10 10 9 8 7 5 5 5 6 5 5 5 5 5 4 4 3 2 2 2 1 0 0 0 0 0 -0 0 -0 -0 -1 -0 -1 -1 -1 -2 -2 -2 -3 -2 -2
9 9 10 9 8 7 6 5 5 5 5 5 6 5 5 5 4 4 3 3 3 3 1 0 -1 -1 -1 -0 0 0 0 -0 0 -0 -0 -1 -1 -1 -1 -2 -2 -2 -2
9 9 9 8 8 7 5 5 4 3 4 5 6 6 5 5 5 4 3 3 2 3 2 1 1 0 -1 -0 -1 -1 -0 -1 -1 -1 -1 -1 -1 -1 -1 -2 -2 -2 -2
8 8 8 8 7 6 5 5 4 4 5 5 5 5 5 6 5 5 5 4 3 2 2 2 2 2 1 1 0 -1 -0 -1 -1 -1 -1 -1 -2 -1 -2 -2 -2 -2 -2
3 6 7 7 7 6 5 5 5 5 5 4 4 4 5 5 5 5 5 5 5 4 4 3 3 2 2 1 1 1 1 1 1 0 0 -0 -1 -0 -1 -1 -1 -1 -1
2 2 3 4 6 5 5 4 4 4 3 4 4 4 4 4 4 5 5 5 5 5 4 4 4 4 4 4 3 2 2 2 2 2 2 2 1 1 1 0 0 0 -0
-0 0 1 2 2 2 3 3 1 2 3 4 4 4 4 4 4 4 4 4 4 4 4 4 4 3 4 4 4 3 3 3 2 2 2 2 2 2 2 1 1 1 0
-2 -1 -0 -0 -0 0 1 1 1 2 3 4 4 4 4 4 4 4 4 4 4 4 4 4 4 4 3 3 3 3 2 2 2 2 3 3 3 3 3 3 2 2 1
-1 -2 -2 -1 -1 0 1 1 2 2 2 3 3 4 4 4 4 4 4 4 4 4 3 3 4 4 4 4 4 4 4 3 4 3 3 3 3 3 2 2 2 3 2
-2 -2 -3 -3 -3 -2 -0 0 1 2 2 2 2 2 2 2 2 3 3 3 3 3 4 3 3 3 3 3 4 4 3 3 3 3 3 3 2 2 2 1 1 1 0
-3 -4 -2 -2 -1 0 0 1 1 1 1 2 2 2 2 2 2 2 2 2 2 3 3 3 4 4 4 4 4 4 3 3 2 2 2 2 2 2 1 1 1 0 -0
-3 -3 -3 -3 -1 -0 0 0 1 1 1 1 1 2 2 2 2 3 2 2 2 2 2 2 2 3 3 3 4 4 4 3 3 2 2 2 2 2 1 0 1 1 1
-3 -3 -2 -1 -1 -1 -0 0 0 0 0 1 1 1 1 2 2 2 2 2 3 2 2 2 2 2 2 2 2 3 3 3 3 3 1 0 0 0 -0 -0 1 -0 0
-4 -2 -2 -2 -1 -1 -1 -1 -1 -0 -0 -0 -0 0 0 0 0 0 0 0 1 1 1 1 1 1 1 1 1 1 1 1 1 1 0 -2 -2 -2 -1 -1 -1 -1 -1
-3 -3 -2 -2 -1 -2 -1 -1 -1 -1 -1 -1 -1 -1 -1 -1 -1 -1 -1 -1 -1 -1 -1 -1 -1 -1 -0 -0 0 0 -0 -1 -2 -2 -3 -3 -3 -2 -2 -2 -2 -3 -3
-4 -3 -3 -3 -3 -2 -2 -2 -2 -3 -2 -2 -2 -2 -2 -3 -3 -3 -3 -3 -3 -3 -3 -3 -3 -3 -3 -3 -2 -2 -3 -4 -5 -5 -5 -5 -5 -6 -7 -7 -8 -8 -9
-5 -4 -4 -4 -4 -3 -3 -3 -4 -4 -4 -4 -4 -4 -4 -5 -5 -5 -5 -5 -5 -5 -5 -5 -5 -6 -6 -6 -7 -7 -7 -8 -8 -9 -9 -8 -8 -9 -10 -11 -11 -11 -11
Height
3046 3048 3050 3054 3056 3057 3059 3059 3057 3055 3052 3051 3050 3048 3050 3052 3054 3056 3055 3053 3058 3063 3073 3079 3087 3093 3097 3103 3108 3113 3118 3121 3124 3128 3129 3132 3134 3138 3140 3143 3145 3148 3150
3038 3042 3045 3048 3050 3053 3055 3055 3054 3052 3050 3048 3047 3047 3048 3051 3053 3054 3055 3057 3059 3064 3071 3077 3083 3089 3095 3099 3103 3108 3113 3117 3121 3125 3128 3130 3132 3133 3137 3140 3142 3145 3147
3032 3037 3040 3043 3046 3048 3051 3052 3051 3050 3047 3046 3045 3044 3046 3048 3050 3052 3055 3059 3062 3066 3071 3075 3080 3086 3091 3095 3098 3103 3107 3113 3117 3121 3124 3126 3128 3133 3134 3138 3141 3142 3144
3026 3031 3035 3038 3042 3045 3047 3048 3048 3047 3045 3043 3043 3042 3044 3047 3049 3051 3055 3058 3061 3065 3068 3072 3077 3081 3086 3090 3097 3100 3106 3110 3113 3117 3119 3123 3126 3129 3132 3134 3137 3137 3139
3020 3026 3030 3034 3038 3041 3044 3045 3045 3045 3044 3042 3041 3040 3042 3045 3047 3049 3052 3054 3057 3061 3066 3069 3073 3077 3082 3087 3092 3095 3101 3105 3109 3112 3117 3120 3122 3125 3127 3130 3133 3135 3138
3016 3020 3023 3028 3033 3037 3040 3042 3043 3043 3042 3041 3040 3038 3039 3042 3045 3047 3048 3049 3053 3056 3060 3066 3068 3074 3080 3083 3087 3091 3094 3099 3105 3108 3112 3115 3118 3122 3123 3126 3126 3128 3131
3011 3015 3017 3022 3027 3032 3036 3039 3041 3041 3041 3041 3039 3038 3038 3039 3041 3044 3045 3045 3046 3050 3056 3062 3066 3071 3075 3078 3081 3085 3089 3093 3097 3103 3106 3110 3113 3117 3117 3120 3120 3121 3126
3006 3009 3012 3017 3022 3028 3033 3036 3038 3039 3039 3039 3038 3037 3037 3038 3039 3040 3041 3041 3041 3045 3052 3057 3063 3067 3071 3074 3076 3079 3082 3086 3090 3094 3098 3103 3106 3110 3110 3111 3113 3115 3118
3000 3003 3007 3012 3017 3023 3029 3033 3034 3035 3036 3036 3036 3036 3036 3036 3037 3038 3039 3039 3042 3044 3050 3055 3057 3063 3066 3069 3072 3073 3077 3081 3085 3088 3092 3094 3097 3102 3104 3104 3107 3111 3110
2995 2997 3000 3005 3011 3018 3025 3028 3030 3031 3033 3034 3034 3034 3034 3035 3036 3038 3038 3038 3040 3044 3048 3051 3056 3058 3060 3063 3067 3070 3073 3077 3080 3083 3086 3087 3091 3092 3096 3097 3098 3102 3103
2988 2991 2993 2999 3005 3013 3019 3024 3026 3028 3030 3031 3033 3033 3033 3034 3035 3036 3038 3038 3040 3043 3047 3050 3052 3055 3056 3059 3060 3066 3068 3070 3074 3077 3078 3080 3083 3085 3087 3088 3090 3092 3095
2982 2987 2987 2994 3001 3008 3015 3020 3022 3024 3025 3027 3030 3032 3033 3033 3034 3035 3036 3038 3039 3040 3043 3046 3048 3050 3052 3055 3057 3060 3062 3064 3066 3069 3071 3073 3078 3077 3079 3080 3081 3083 3086
2979 2982 2986 2990 2997 3003 3008 3013 3016 3020 3023 3025 3027 3030 3031 3033 3034 3034 3036 3037 3038 3040 3041 3043 3044 3046 3047 3050 3052 3054 3057 3057 3058 3061 3062 3064 3068 3067 3069 3070 3071 3074 3076
2978 2980 2984 2988 2994 3000 3006 3011 3015 3018 3021 3024 3024 3026 3028 3029 3030 3032 3033 3034 3035 3037 3038 3040 3041 3042 3043 3045 3046 3048 3049 3051 3052 3054 3054 3055 3056 3056 3059 3060 3061 3063 3064
2979 2980 2983 2986 2992 2999 3003 3007 3012 3015 3019 3020 3021 3023 3025 3026 3027 3029 3030 3031 3032 3034 3035 3036 3037 3038 3040 3041 3042 3043 3043 3043 3043 3044 3045 3046 3048 3049 3050 3050 3051 3052 3051
2981 2981 2983 2987 2992 2997 3000 3004 3007 3010 3015 3016 3018 3019 3021 3022 3024 3025 3026 3028 3028 3030 3030 3032 3032 3034 3035 3036 3037 3036 3036 3036 3036 3036 3037 3038 3038 3039 3040 3040 3041 3042 3039
2986 2985 2984 2987 2993 2995 2999 3002 3006 3007 3009 3011 3013 3014 3016 3017 3018 3019 3021 3021 3022 3023 3024 3025 3025 3025 3028 3029 3027 3027 3025 3026 3026 3026 3027 3028 3028 3029 3028 3028 3027 3026 3026
2982 2983 2984 2986 2992 2994 2998 3002 3003 3004 3005 3006 3007 3008 3009 3010 3011 3012 3013 3014 3014 3014 3015 3015 3015 3016 3016 3016 3016 3017 3016 3015 3016 3016 3016 3016 3016 3015 3014 3015 3014 3014 3014
2979 2978 2984 2987 2990 2994 2994 2998 3000 3001 3002 3002 3003 3003 3004 3005 3005 3005 3006 3006 3006 3006 3006 3005 3005 3005 3004 3003 3004 3005 3005 3003 3003 3004 3003 3000 2999 3000 3001 3000 2998 2998 2995
2978 2980 2983 2989 2993 2990 2994 2995 2996 2997 2999 3000 2999 2999 2999 2999 2999 2999 2999 2998 2998 2998 2997 2996 2995 2994 2993 2991 2991 2992 2992 2991 2989 2989 2985 2984 2980 2982 2986 2985 2984 2982 2977
2978 2982 2986 2988 2989 2991 2992 2992 2993 2994 2994 2994 2994 2994 2994 2994 2993 2993 2992 2991 2989 2989 2988 2987 2986 2985 2983 2981 2979 2978 2976 2975 2973 2972 2969 2967 2965 2968 2970 2969 2967 2966 2961
2977 2980 2982 2984 2985 2986 2988 2988 2989 2990 2989 2989 2989 2988 2988 2987 2986 2985 2985 2984 2982 2980 2979 2977 2975 2973 2971 2969 2967 2966 2964 2961 2958 2955 2952 2950 2948 2948 2951 2952 2951 2947 2944
2975 2978 2980 2981 2982 2983 2984 2984 2984 2984 2984 2983 2982 2982 2980 2979 2978 2977 2977 2975 2974 2972 2971 2968 2966 2964 2960 2956 2953 2950 2949 2947 2945 2942 2938 2936 2933 2931 2930 2931 2931 2928 2927
2974 2976 2976 2976 2977 2978 2978 2979 2979 2978 2978 2978 2977 2976 2975 2974 2972 2971 2970 2968 2966 2964 2962 2960 2957 2954 2951 2947 2942 2938 2935 2932 2930 2928 2926 2924 2921 2918 2914 2912 2911 2909 2910
2972 2972 2971 2972 2972 2973 2973 2972 2971 2971 2970 2969 2968 2967 2967 2966 2965 2963 2962 2959 2957 2955 2953 2950 2948 2946 2943 2939 2935 2930 2926 2923 2920 2919 2916 2913 2911 2908 2906 2903 2900 2899 2900
2968 2968 2967 2967 2968 2968 2968 2968 2966 2965 2964 2962 2961 2959 2958 2958 2957 2956 2954 2951 2949 2947 2945 2943 2941 2938 2934 2931 2929 2926 2923 2920 2916 2913 2912 2911 2908 2906 2905 2903 2900 2898 2898
Wind_Speed
23 21 24 26 24 22 17 15 17 18 16 16 14 10 16 15 15 11 9 12 18 35 29 34 33 33 32 30 28 25 23 27 26 27 28 26 23 22 20 23 23 22 21
29 25 23 23 24 21 16 14 15 16 15 14 12 9 14 15 14 12 7 3 17 30 38 36 36 35 35 33 35 32 33 32 27 29 28 28 26 24 21 22 24 24 24
28 23 24 21 19 18 11 12 13 14 13 13 11 9 15 18 18 18 13 13 12 17 22 27 35 37 37 35 30 29 27 24 30 33 32 32 29 25 25 25 26 26 25
25 24 22 20 17 14 12 11 10 12 11 11 10 6 12 17 16 17 16 14 17 19 22 21 30 38 40 38 32 32 32 30 31 32 34 30 28 26 24 26 30 30 28
29 28 22 19 18 14 15 14 9 10 9 9 9 6 11 14 15 18 22 20 21 26 29 26 28 27 32 31 38 38 35 32 32 33 32 31 30 28 27 33 36 31 25
22 24 23 21 24 17 17 15 11 9 6 7 7 7 7 11 13 15 18 17 22 27 25 26 32 32 29 35 36 39 41 36 34 32 32 31 31 31 35 33 37 32 26
23 20 23 26 20 22 20 16 12 9 5 4 4 3 5 9 11 12 14 17 24 31 32 23 27 28 28 35 37 35 37 42 37 34 33 33 33 33 39 28 30 32 25
25 21 18 23 21 22 20 14 12 9 7 5 3 0 1 4 7 8 9 11 11 28 29 26 28 31 27 30 40 42 42 39 42 46 43 38 36 34 38 41 21 23 25
26 25 21 24 22 24 19 15 13 12 9 8 5 4 3 1 3 5 4 3 10 18 18 26 36 24 28 25 34 40 39 38 37 37 43 44 47 36 36 41 24 29 32
24 25 26 26 28 27 23 17 16 15 13 9 7 6 5 5 3 2 2 3 7 18 20 19 19 19 20 24 28 30 33 39 39 40 42 49 42 45 37 52 31 36 39
19 24 32 29 32 28 26 19 15 13 14 13 11 9 8 6 4 4 5 5 5 8 15 15 17 17 18 20 20 34 31 35 38 38 41 43 48 46 40 32 37 39 41
22 24 29 34 32 29 26 22 19 15 15 14 14 12 10 8 6 5 5 6 7 8 10 14 13 15 21 22 23 27 32 31 33 34 36 36 34 36 35 37 37 43 45
18 23 31 33 34 32 31 30 26 20 14 12 11 11 11 11 10 9 8 7 8 9 10 12 13 14 15 18 23 29 32 32 35 38 39 39 37 39 41 42 45 49 51
11 19 27 31 33 32 31 27 21 17 14 12 11 10 11 14 14 14 13 12 12 12 12 13 14 16 19 22 24 24 26 27 29 32 35 39 40 40 42 46 48 50 52
13 14 19 22 33 31 30 25 19 15 15 16 14 12 11 13 12 13 14 15 16 16 18 19 19 20 21 23 24 27 29 30 32 32 33 36 38 39 40 45 46 49 53
20 19 16 14 10 11 11 19 23 15 20 15 15 14 13 14 16 17 17 18 19 20 20 19 20 24 26 27 29 31 33 34 37 38 39 40 41 41 41 44 46 48 52
13 17 19 16 11 8 4 3 3 6 8 11 14 17 19 20 19 20 20 21 22 24 26 28 29 31 32 34 33 34 37 38 41 42 43 43 44 45 46 46 49 50 52
14 13 15 16 9 9 4 3 7 9 11 15 17 19 21 23 24 26 28 29 29 28 29 30 31 32 35 37 40 42 43 43 46 46 45 45 46 45 46 47 53 56 57
10 15 13 9 8 4 1 5 9 10 11 12 14 15 17 18 19 21 22 24 27 30 33 35 37 38 40 41 42 43 43 45 46 48 49 49 50 50 54 55 57 55 58
13 15 13 8 1 3 3 6 9 11 13 15 15 16 17 18 19 21 22 22 24 25 27 30 33 35 38 40 42 46 49 48 48 48 50 52 55 55 51 51 53 52 59
11 9 6 2 2 6 8 10 12 15 16 17 18 19 21 22 23 24 24 25 26 25 26 28 31 34 37 39 42 44 47 49 51 53 54 57 59 57 51 49 53 54 59
11 5 4 4 5 8 11 14 14 15 15 17 18 19 20 21 21 23 25 26 28 29 30 31 32 33 34 35 38 42 46 50 53 56 57 56 57 58 54 52 60 62 67
4 3 5 8 12 13 13 13 14 15 15 16 17 18 18 19 20 21 23 24 25 27 28 29 30 32 34 36 37 38 38 40 46 51 55 52 55 53 56 58 61 56 65
5 10 10 10 13 14 14 15 14 14 14 15 15 16 16 17 18 20 21 21 22 22 24 26 27 29 31 32 34 35 38 38 40 42 43 45 50 52 56 55 49 45 47
10 11 11 12 13 15 16 16 16 16 16 17 17 17 17 17 17 17 18 19 21 21 22 23 23 23 23 25 26 26 24 23 26 31 32 30 31 31 26 24 19 18 15
10 11 11 13 15 16 16 17 17 17 17 18 18 18 18 17 17 18 18 19 20 20 20 21 20 18 18 18 17 17 18 17 16 13 15 18 18 15 13 11 10 9 9
Wind_Direction
241 244 254 265 262 259 268 283 301 306 302 306 310 282 230 217 215 214 237 222 205 213 198 183 188 201 205 208 210 204 213 222 214 210 213 210 208 219 221 216 211 212 209
237 229 245 255 258 255 250 277 294 307 301 307 311 272 231 218 212 217 224 232 166 188 190 189 192 197 204 202 215 223 220 216 220 223 220 222 219 213 218 220 213 210 208
230 226 240 243 241 232 246 264 288 309 301 310 315 266 231 210 207 211 209 213 230 226 212 207 196 197 208 218 227 226 222 231 215 226 225 223 224 226 225 233 229 216 215
222 227 233 242 233 221 225 252 278 301 302 312 319 256 225 224 221 222 230 229 229 215 225 225 215 205 209 210 212 219 227 230 231 232 232 227 231 235 232 232 228 222 218
225 233 235 230 233 216 226 243 273 289 302 310 317 278 215 221 220 223 232 232 242 228 221 223 221 220 219 228 213 222 223 224 228 233 237 238 238 227 229 234 239 232 234
215 228 233 234 234 212 220 236 260 276 290 302 315 307 244 222 226 245 247 233 225 225 209 224 217 220 227 224 226 223 221 217 226 228 234 240 242 237 248 253 278 225 235
226 238 242 236 223 215 226 233 256 259 259 276 308 319 280 246 241 248 263 249 226 219 220 224 226 221 241 232 236 235 231 228 217 225 234 239 237 245 256 256 257 252 222
237 236 226 230 229 209 223 224 241 239 220 214 215 278 316 273 261 248 268 266 225 213 215 220 223 236 236 235 239 229 229 230 231 229 221 230 239 244 247 256 256 230 231
234 237 220 226 224 203 209 213 224 223 210 204 193 183 140 137 243 253 272 247 215 193 216 227 231 242 241 247 250 241 233 237 240 238 230 224 234 233 247 258 251 261 262
236 230 229 213 194 198 206 212 213 216 218 209 196 191 178 160 155 224 228 224 212 211 205 213 219 241 242 234 240 246 247 242 246 248 242 240 232 233 231 249 237 251 261
223 251 227 199 183 194 197 202 198 199 210 218 212 200 200 194 174 174 186 179 197 215 217 227 223 231 229 232 236 242 254 252 249 256 250 250 239 257 260 243 247 250 257
208 227 183 180 183 193 194 192 191 198 202 210 221 219 215 214 211 203 204 212 213 211 220 232 249 242 228 237 235 237 239 250 247 252 255 252 252 256 257 253 254 259 264
212 201 185 184 191 193 196 196 201 208 221 223 232 236 233 232 230 228 231 231 235 242 247 250 255 261 257 248 246 247 250 257 252 248 251 251 249 252 258 261 261 262 265
216 198 193 195 198 199 201 207 213 220 226 211 213 226 239 238 242 245 241 241 247 252 255 258 261 265 267 267 266 262 259 259 259 255 254 253 251 252 255 259 260 260 260
149 181 195 198 203 204 210 214 223 220 235 230 233 236 241 250 251 257 260 261 263 260 260 263 266 266 267 270 273 274 276 275 273 272 270 270 270 269 267 264 264 263 264
97 111 127 128 155 186 195 222 236 219 238 236 247 251 257 256 258 260 263 267 271 268 265 266 273 279 273 273 272 270 268 267 267 269 271 271 271 271 270 269 268 268 270
119 109 110 111 112 106 103 134 221 266 263 257 260 268 273 275 270 268 270 271 272 272 269 265 264 260 266 269 264 261 259 261 267 270 271 270 270 271 270 269 269 268 268
202 165 146 130 120 138 155 270 268 275 278 280 276 273 272 271 268 267 267 269 270 269 267 264 264 263 262 263 262 263 264 264 267 267 268 270 271 271 274 275 272 272 270
137 139 90 78 83 100 82 267 273 276 274 272 273 275 275 278 280 278 276 274 272 271 272 272 272 271 270 266 264 263 264 265 265 266 265 262 261 261 266 268 273 277 280
120 104 109 102 19 22 256 257 263 262 262 266 269 272 276 280 282 281 280 279 279 278 279 280 280 279 279 278 276 274 271 272 272 271 268 267 264 260 259 260 266 270 271
126 124 132 137 321 287 290 288 283 278 275 273 272 271 271 272 275 278 282 285 286 285 282 280 278 278 279 281 280 280 280 279 275 273 273 273 272 273 271 271 264 267 269
155 154 234 274 295 297 292 294 289 282 277 275 275 275 275 276 277 279 281 283 284 287 288 289 289 287 286 284 282 280 279 278 276 276 276 274 273 274 275 275 272 274 271
133 219 261 283 287 286 283 282 283 285 288 290 289 288 288 289 290 290 292 293 293 293 292 292 292 294 295 297 298 298 295 290 283 277 274 275 275 274 274 272 272 275 272
243 258 265 277 283 283 284 283 284 284 286 287 289 291 293 292 291 290 292 293 293 294 295 296 297 299 299 301 306 309 309 310 307 298 289 284 277 275 279 281 278 279 278
258 268 276 282 284 286 287 288 290 290 292 293 295 297 297 298 297 297 297 297 299 302 304 304 306 308 308 308 308 310 317 325 329 322 304 287 278 280 284 286 284 279 266
271 283 291 290 288 287 287 288 289 292 294 296 298 300 303 304 305 306 307 309 311 313 313 314 316 318 323 328 331 332 332 334 337 345 334 322 314 311 309 307 298 292 280